Date,TemperatureHighF,TemperatureAvgF,TemperatureLowF,DewpointHighF,DewpointAvgF,DewpointLowF,HumidityHigh,HumidityAvg,HumidityLow,PressureMaxIn,PressureMinIn,WindSpeedMaxMPH,WindSpeedAvgMPH,GustSpeedMaxMPH,PrecipitationSumIn
2013-8-1,88.0,77.9,73.1,76.9,72.1,69.4,89,83,69,30.00,29.88,4,0,4,0.02
2013-8-2,88.6,80.4,74.5,78.0,73.9,70.7,89,81,69,30.01,29.91,3,0,3,0.00
2013-8-3,91.1,84.2,74.5,78.3,73.4,69.0,88,71,57,30.02,29.94,4,1,4,0.00
2013-8-4,92.2,80.6,73.3,75.3,70.9,67.7,85,73,57,30.00,29.92,10,1,10,0.00
2013-8-5,89.1,79.9,73.4,70.5,67.8,63.4,82,67,52,30.06,29.97,4,1,4,0.00
2013-8-6,76.7,73.7,72.2,69.8,67.0,62.6,89,80,65,30.05,29.97,8,0,8,1.95
2013-8-7,85.3,77.8,72.4,74.6,70.7,68.6,89,80,63,30.08,30.00,3,0,3,0.00
2013-8-8,90.4,83.8,76.0,76.3,73.1,69.8,85,71,60,30.06,29.99,3,0,3,0.00
2013-8-9,90.7,82.0,75.6,78.1,74.1,70.8,87,77,65,30.10,30.01,3,1,3,0.00
2013-8-10,93.8,83.5,75.2,77.9,73.8,70.5,86,73,58,30.12,30.03,4,0,4,0.00
2013-8-11,95.2,84.2,75.4,77.3,73.5,70.3,85,71,53,30.12,30.03,5,0,5,0.00
2013-8-12,95.4,84.2,76.0,77.7,73.4,70.5,84,71,54,30.07,29.94,6,0,6,0.12
2013-8-13,94.0,82.6,75.4,77.7,73.6,71.2,88,75,55,29.97,29.81,6,1,6,0.01
2013-8-14,81.2,77.5,74.5,72.2,69.4,66.7,83,76,64,29.99,29.84,11,2,11,0.01
2013-8-15,74.5,72.0,68.4,64.6,62.5,59.9,79,72,66,30.11,30.02,6,1,6,0.04
2013-8-16,70.0,66.3,65.2,62.6,61.4,60.2,89,84,74,30.12,30.04,8,2,8,2.70
2013-8-17,65.9,65.7,65.3,62.6,62.2,61.8,89,89,88,30.11,30.06,6,2,6,0.10
2013-8-19,77.2,75.4,73.4,72.4,70.8,69.4,87,86,85,30.11,30.07,2,0,2,0.00
2013-8-20,83.0,76.0,72.5,77.0,71.6,68.8,90,86,80,30.17,30.08,9,1,9,0.03
2013-8-21,89.3,79.1,72.2,79.5,73.1,68.9,92,82,71,30.22,30.09,9,0,9,0.01
2013-8-22,91.1,78.7,72.5,78.3,71.8,68.5,89,80,63,30.15,30.00,4,0,4,0.01
2013-8-23,89.6,78.2,71.8,75.7,70.3,67.4,88,77,62,30.05,29.94,6,0,6,0.00
2013-8-24,81.9,75.9,70.9,70.7,67.2,62.1,81,75,65,30.25,30.01,9,2,9,0.00
2013-8-25,82.6,73.5,65.7,64.9,61.2,57.2,82,66,51,30.35,30.24,11,1,11,0.00
2013-8-26,84.1,72.6,63.0,64.2,58.9,55.3,79,63,45,30.29,30.12,9,1,9,0.00
2013-8-27,88.0,74.5,62.1,71.7,63.7,54.5,81,70,56,30.14,29.99,5,0,5,0.00
2013-8-28,91.8,79.6,69.8,74.4,69.3,64.4,84,72,55,30.02,29.93,5,0,5,0.00
2013-8-29,93.6,82.0,72.0,77.2,71.0,66.1,84,71,54,29.95,29.86,8,1,8,0.00
2013-8-30,88.2,79.7,74.2,73.0,69.3,66.4,82,71,56,30.04,29.93,5,1,5,0.00
2013-8-31,90.7,79.7,70.6,75.6,70.6,65.6,87,75,59,29.98,29.87,3,0,3,0.00